Location: L�beck
(53.8752°N, 10.6787°E)
Time: 12:27:01
(UTC+02:00)

ISS - Pass Details

Date: 05 January 2018
Orbit: 402 x 408 km, 51.6° (Epoch: 20 July)

Event Time Altitude Azimuth Distance (km) Brightness Sun altitude
Exits shadow 06:14:44 53° 210° (SSW) 523 -3.5 -19.2°
Maximum altitude 06:15:09 58° 176° (S) 493 -3.4 -19.2°
Drops below altitude 10° 06:18:29 10° 96° (E) 1,504 0.3 -18.7°
Enters shadow 07:11:58 -74° 282° (WNW) 12,647 3.7 -11.2°
